EW4560 Weather Reports


time (UTC)temp
F
wind
direction
speed
knots
gust
knots
rain 1hr
in
rain 24hr
in
rain mn
in
humidity
%
barometer
mb
20260906223524 91 115 0.9 3.5 0.00 0.00 0.00 31 1016.1
20260906223020 91 65 1.7 3.5 0.00 0.00 0.00 30 1016.2
20260906222520 91 151 0.9 5.2 0.00 0.00 0.00 30 1016.2
20260906222019 91 101 1.7 5.2 0.00 0.00 0.00 30 1016.3
20260906221521 90 100 0.9 3.5 0.00 0.00 0.00 30 1016.5
20260906221017 89 42 0.9 3.5 0.00 0.00 0.00 30 1016.7
20260906220518 89 67 0.9 3.5 0.00 0.00 0.00 30 1016.7
20260906220017 89 127 0.0 2.6 0.00 0.00 0.00 31 1016.7
20260906215516 89 122 0.9 3.5 0.00 0.00 0.00 30 1016.7
20260906215017 90 99 1.7 3.5 0.00 0.00 0.00 29 1016.9
20260906214516 91 133 0.9 5.2 0.00 0.00 0.00 29 1016.9
20260906214024 90 131 1.7 6.1 0.00 0.00 0.00 29 1017.0
20260906214017 91 131 0.9 5.2 0.00 0.00 0.00 30 1016.9
20260906213022 90 34 1.7 7.0 0.00 0.00 0.00 31 1017.1
20260906213016 90 78 1.7 6.1 0.00 0.00 0.00 30 1017.1
20260906212014 90 313 1.7 7.0 0.00 0.00 0.00 31 1017.1
20260906211515 90 63 0.9 4.3 0.00 0.00 0.00 32 1017.3
20260906211014 90 30 1.7 3.5 0.00 0.00 0.00 31 1017.3
20260906210513 90 120 0.9 3.5 0.00 0.00 0.00 31 1017.4
20260906210013 89 62 0.9 3.5 0.00 0.00 0.00 31 1017.5
20260906205514 89 68 1.7 4.3 0.00 0.00 0.00 31 1017.6
20260906205013 89 25 0.9 4.3 0.00 0.00 0.00 31 1017.6
20260906204513 89 124 0.9 4.3 0.00 0.00 0.00 32 1017.7
20260906204013 88 35 1.7 4.3 0.00 0.00 0.00 32 1017.8
20260906203513 88 355 0.9 4.3 0.00 0.00 0.00 32 1018.0
20260906203018 87 105 0.9 5.2 0.00 0.00 0.00 32 1018.0
20260906203014 88 36 0.9 5.2 0.00 0.00 0.00 32 1018.0
20260906202018 87 345 0.9 6.1 0.00 0.00 0.00 32 1018.2
20260906202014 87 345 1.7 6.1 0.00 0.00 0.00 32 1018.1
20260906201013 86 306 0.9 4.3 0.00 0.00 0.00 32 1018.2
20260906200514 86 92 1.7 5.2 0.00 0.00 0.00 32 1018.3
20260906200013 86 12 1.7 5.2 0.00 0.00 0.00 32 1018.3
20260906195513 86 330 0.9 5.2 0.00 0.00 0.00 33 1018.3
20260906195014 86 302 1.7 5.2 0.00 0.00 0.00 32 1018.4
20260906194513 86 32 0.9 4.3 0.00 0.00 0.00 33 1018.6
20260906194018 85 337 0.9 4.3 0.00 0.00 0.00 35 1018.8
20260906194013 85 27 0.9 4.3 0.00 0.00 0.00 34 1018.7
20260906193012 85 19 0.9 4.3 0.00 0.00 0.00 36 1018.9
20260906192514 84 327 0.9 3.5 0.00 0.00 0.00 37 1019.0
20260906192013 84 76 0.9 3.5 0.00 0.00 0.00 37 1019.0
20260906191513 84 52 1.7 5.2 0.00 0.00 0.00 37 1019.1
20260906191013 84 17 1.7 5.2 0.00 0.00 0.00 38 1019.3
20260906190514 84 63 1.7 3.5 0.00 0.00 0.00 38 1019.3
20260906190018 84 356 0.0 3.5 0.00 0.00 0.00 37 1019.5
20260906190014 84 325 0.9 3.5 0.00 0.00 0.00 37 1019.4
20260906185013 84 33 0.9 3.5 0.00 0.00 0.00 37 1019.6
20260906184509 83 103 0.9 3.5 0.00 0.00 0.00 38 1019.7
20260906184008 83 56 0.9 3.5 0.00 0.00 0.00 37 1019.9
20260906183510 83 140 0.9 4.3 0.00 0.00 0.00 38 1020.0
20260906183506 83 101 0.9 4.3 0.00 0.00 0.00 38 1019.9
20260906182504 83 42 0.9 4.3 0.00 0.00 0.00 39 1020.1
20260906182002 83 41 0.9 4.3 0.00 0.00 0.00 37 1020.2
20260906181506 82 60 0.9 4.3 0.00 0.00 0.00 39 1020.4
20260906181500 82 97 0.9 3.5 0.00 0.00 0.00 38 1020.3
20260906180503 81 49 0.9 4.3 0.00 0.00 0.00 40 1020.6
20260906180458 81 336 0.9 3.5 0.00 0.00 0.00 41 1020.7
20260906175456 81 25 0.9 3.5 0.00 0.00 0.00 41 1020.6
20260906175001 80 48 0.9 3.5 0.00 0.00 0.00 43 1020.8
20260906174955 80 54 0.9 2.6 0.00 0.00 0.00 42 1020.8
20260906173955 80 335 0.9 3.5 0.00 0.00 0.00 43 1020.9
20260906173457 80 52 0.9 3.5 0.00 0.00 0.00 42 1021.0
20260906172958 79 321 0.9 3.5 0.00 0.00 0.00 44 1021.3
20260906172953 79 122 0.9 3.5 0.00 0.00 0.00 42 1021.2
20260906171951 79 120 0.9 1.7 0.00 0.00 0.00 44 1021.4
20260906171452 78 30 0.9 2.6 0.00 0.00 0.00 43 1021.5
20260906171110 78 63 0.9 3.5 0.00 0.00 0.00 44 1021.7
20260906170958 78 39 0.0 3.5 0.00 0.00 0.00 44 1021.6
20260906170951 78 103 0.9 3.5 0.00 0.00 0.00 44 1021.5
20260906165452 78 41 0.9 3.5 0.00 0.00 0.00 44 1021.7
20260906164951 78 82 0.0 1.7 0.00 0.00 0.00 44 1021.9
20260906164452 77 162 0.9 1.7 0.00 0.00 0.00 44 1022.0
20260906163951 77 289 0.0 1.7 0.00 0.00 0.00 44 1021.9
20260906163450 77 154 0.0 1.7 0.00 0.00 0.00 44 1021.9
20260906162950 76 145 0.0 1.7 0.00 0.00 0.00 45 1021.9
20260906162450 76 144 0.0 1.7 0.00 0.00 0.00 46 1022.0
20260906161948 75 89 0.0 1.7 0.00 0.00 0.00 48 1022.0
20260906161447 75 116 0.0 1.7 0.00 0.00 0.00 48 1021.9
20260906160948 75 148 0.0 1.7 0.00 0.00 0.00 48 1022.0
20260906160454 74 149 0.0 0.9 0.00 0.00 0.00 49 1022.0
20260906160447 75 155 0.0 0.9 0.00 0.00 0.00 49 1022.0
20260906155446 74 140 0.0 0.9 0.00 0.00 0.00 51 1022.0
20260906154944 73 311 0.0 0.9 0.00 0.00 0.00 52 1022.0
20260906154444 73 357 0.0 0.9 0.00 0.00 0.00 52 1022.0
20260906153943 73 150 0.0 0.9 0.00 0.00 0.00 54 1022.0
20260906153443 72 145 0.0 0.9 0.00 0.00 0.00 54 1021.9
20260906152943 71 147 0.0 0.9 0.00 0.00 0.00 55 1021.9
20260906152448 70 138 0.0 0.0 0.00 0.00 0.00 57 1022.1
20260906152444 71 78 0.0 0.9 0.00 0.00 0.00 56 1021.9
20260906151444 70 141 0.0 0.0 0.00 0.00 0.00 58 1022.1
20260906150948 69 144 0.0 0.0 0.00 0.00 0.00 62 1022.1
20260906150944 69 144 0.0 0.0 0.00 0.00 0.00 60 1022.0
20260906145944 68 144 0.0 0.9 0.00 0.00 0.00 61 1022.1
20260906145442 67 144 0.0 0.9 0.00 0.00 0.00 63 1022.1
20260906144941 67 224 0.0 0.9 0.00 0.00 0.00 64 1022.1
20260906144441 67 224 0.0 0.9 0.00 0.00 0.00 65 1022.0
20260906143942 67 224 0.0 0.0 0.00 0.00 0.00 66 1022.1
20260906143441 66 224 0.0 0.0 0.00 0.00 0.00 67 1022.1
20260906142942 65 314 0.0 0.0 0.00 0.00 0.00 68 1022.1
20260906142442 65 313 0.0 0.0 0.00 0.00 0.00 67 1022.1
20260906141941 65 313 0.0 0.0 0.00 0.00 0.00 68 1022.1
20260906141441 64 313 0.0 0.0 0.00 0.00 0.00 69 1022.1
20260906140941 63 313 0.0 0.0 0.00 0.00 0.00 69 1022.1
20260906140440 63 313 0.0 0.0 0.00 0.00 0.00 70 1022.2
20260906135945 61 313 0.0 0.0 0.00 0.00 0.00 73 1022.2
20260906135939 62 313 0.0 0.0 0.00 0.00 0.00 71 1022.2
20260906135557 61 313 0.0 0.0 0.00 0.00 0.00 73 1022.2
20260906134439 60 313 0.0 0.0 0.00 0.00 0.00 73 1022.2
20260906133940 60 313 0.0 0.0 0.00 0.00 0.00 74 1022.2
20260906133439 60 313 0.0 0.0 0.00 0.00 0.00 76 1022.1
20260906132940 59 313 0.0 0.0 0.00 0.00 0.00 77 1022.1
20260906132439 59 313 0.0 0.0 0.00 0.00 0.00 78 1022.0
20260906131939 58 313 0.0 0.0 0.00 0.00 0.00 78 1022.0
20260906131438 58 313 0.0 0.0 0.00 0.00 0.00 78 1021.9
20260906130938 58 313 0.0 0.0 0.00 0.00 0.00 77 1021.9
20260906130436 58 313 0.0 0.0 0.00 0.00 0.00 77 1021.6
20260906125938 58 313 0.0 0.0 0.00 0.00 0.00 76 1021.5
20260906125438 58 313 0.0 0.0 0.00 0.00 0.00 76 1021.5
20260906124935 58 313 0.0 0.0 0.00 0.00 0.00 75 1021.5
20260906124435 59 313 0.0 0.0 0.00 0.00 0.00 75 1021.4
20260906123935 59 313 0.0 0.0 0.00 0.00 0.00 75 1021.4
20260906123436 59 313 0.0 0.0 0.00 0.00 0.00 75 1021.3
20260906122934 59 313 0.0 0.0 0.00 0.00 0.00 74 1021.3
20260906122434 59 313 0.0 0.0 0.00 0.00 0.00 73 1021.4
20260906121939 59 313 0.0 0.0 0.00 0.00 0.00 74 1021.5
20260906121935 59 313 0.0 0.0 0.00 0.00 0.00 74 1021.4
20260906121552 60 313 0.0 0.0 0.00 0.00 0.00 73 1021.5
20260906120439 60 313 0.0 0.0 0.00 0.00 0.00 72 1021.6
20260906120435 60 313 0.0 0.0 0.00 0.00 0.00 73 1021.4
20260906115434 60 313 0.0 0.0 0.00 0.00 0.00 71 1021.6
20260906114938 61 313 0.0 0.0 0.00 0.00 0.00 70 1021.5
20260906114934 60 313 0.0 0.0 0.00 0.00 0.00 71 1021.6
20260906113933 61 313 0.0 0.0 0.00 0.00 0.00 70 1021.6
20260906113431 62 313 0.0 0.0 0.00 0.00 0.00 69 1021.7
20260906112932 62 313 0.0 0.0 0.00 0.00 0.00 67 1021.5
20260906112431 62 313 0.0 0.0 0.00 0.00 0.00 66 1021.5
20260906111931 62 313 0.0 0.0 0.00 0.00 0.00 65 1021.4
20260906111430 63 314 0.0 0.0 0.00 0.00 0.00 64 1021.4
20260906110931 63 314 0.0 0.0 0.00 0.00 0.00 64 1021.3
20260906110432 63 312 0.0 0.0 0.00 0.00 0.00 63 1021.2
20260906105931 63 312 0.0 0.0 0.00 0.00 0.00 63 1021.0
20260906105432 63 312 0.0 0.0 0.00 0.00 0.00 64 1020.9
20260906104930 63 312 0.0 0.0 0.00 0.00 0.00 63 1020.9
20260906104430 63 312 0.0 0.0 0.00 0.00 0.00 64 1021.0
20260906103929 63 312 0.0 0.0 0.00 0.00 0.00 65 1021.0
20260906103429 63 312 0.0 0.0 0.00 0.00 0.00 64 1020.9
20260906102930 63 312 0.0 0.0 0.00 0.00 0.00 65 1020.9
20260906102429 63 312 0.0 0.0 0.00 0.00 0.00 65 1020.9
20260906101929 63 312 0.0 0.0 0.00 0.00 0.00 64 1021.0
20260906101427 64 312 0.0 0.0 0.00 0.00 0.00 63 1021.0
20260906100925 64 312 0.0 0.0 0.00 0.00 0.00 63 1020.8
20260906100425 63 312 0.0 0.0 0.00 0.00 0.00 64 1020.8
20260906095924 63 312 0.0 0.0 0.00 0.00 0.00 65 1020.8
20260906095426 63 312 0.0 0.0 0.00 0.00 0.00 66 1020.8
20260906094928 63 313 0.0 0.0 0.00 0.00 0.00 67 1020.9
20260906094923 63 313 0.0 0.0 0.00 0.00 0.00 66 1020.9
20260906093924 62 298 0.0 0.0 0.00 0.00 0.00 67 1020.9
20260906093424 62 298 0.0 0.0 0.00 0.00 0.00 67 1020.9
20260906092922 62 298 0.0 0.0 0.00 0.00 0.00 66 1020.9
20260906092428 63 298 0.0 0.0 0.00 0.00 0.00 65 1020.8
20260906092423 63 298 0.0 0.0 0.00 0.00 0.00 65 1020.8
20260906091424 63 298 0.0 0.0 0.00 0.00 0.00 65 1020.8
20260906090923 63 298 0.0 0.0 0.00 0.00 0.00 64 1020.8
20260906090424 64 298 0.0 0.0 0.00 0.00 0.00 64 1020.8
20260906085924 64 298 0.0 0.0 0.00 0.00 0.00 63 1020.7
20260906085423 64 298 0.0 0.0 0.00 0.00 0.00 63 1020.7
20260906084924 64 298 0.0 0.0 0.00 0.00 0.00 62 1020.7
20260906084423 64 298 0.0 0.0 0.00 0.00 0.00 62 1020.6
20260906083923 65 298 0.0 0.0 0.00 0.00 0.00 62 1020.7
20260906083424 65 298 0.0 0.0 0.00 0.00 0.00 61 1020.6
20260906082928 65 298 0.0 0.0 0.00 0.00 0.00 60 1020.6
20260906082924 65 298 0.0 0.0 0.00 0.00 0.00 60 1020.6
20260906081923 65 298 0.0 0.0 0.00 0.00 0.00 60 1020.6
20260906081423 65 298 0.0 0.0 0.00 0.00 0.00 60 1020.7
20260906080928 65 298 0.0 0.0 0.00 0.00 0.00 61 1020.6
20260906080923 65 298 0.0 0.0 0.00 0.00 0.00 61 1020.7
20260906075921 65 298 0.0 0.0 0.00 0.00 0.00 62 1020.6
20260906075421 65 298 0.0 0.0 0.00 0.00 0.00 61 1020.4
20260906074919 65 298 0.0 0.0 0.00 0.00 0.00 61 1020.6
20260906074417 65 298 0.0 0.0 0.00 0.00 0.00 61 1020.4
20260906073924 66 298 0.0 0.0 0.00 0.00 0.00 60 1020.4
20260906073918 66 298 0.0 0.0 0.00 0.00 0.00 60 1020.4
20260906072916 66 298 0.0 0.0 0.00 0.00 0.00 60 1020.3
20260906072419 67 298 0.0 0.0 0.00 0.00 0.00 58 1020.3
20260906072414 66 298 0.0 0.0 0.00 0.00 0.00 59 1020.3
20260906071416 67 298 0.0 0.0 0.00 0.00 0.00 58 1020.3
20260906071410 67 298 0.0 0.0 0.00 0.00 0.00 58 1020.4
20260906070909 67 298 0.0 0.0 0.00 0.00 0.00 58 1020.3
20260906065915 67 298 0.0 0.0 0.00 0.00 0.00 58 1020.3
20260906065908 67 298 0.0 0.0 0.00 0.00 0.00 58 1020.3
20260906064908 68 298 0.0 0.0 0.00 0.00 0.00 57 1020.3
20260906064407 68 298 0.0 0.0 0.00 0.00 0.00 57 1020.4
20260906063906 69 298 0.0 0.0 0.00 0.00 0.00 56 1020.6
20260906063404 69 298 0.0 0.0 0.00 0.00 0.00 55 1020.6
20260906062905 70 298 0.0 0.0 0.00 0.00 0.00 53 1020.4
20260906062405 70 298 0.0 0.0 0.00 0.00 0.00 52 1020.6
20260906061905 70 306 0.0 0.0 0.00 0.00 0.00 51 1020.7
20260906061405 71 337 0.0 0.9 0.00 0.00 0.00 50 1020.8
20260906060901 71 337 0.0 0.9 0.00 0.00 0.00 50 1020.9
20260906060401 70 354 0.0 0.9 0.00 0.00 0.00 51 1021.0
20260906055857 70 122 0.0 0.9 0.00 0.00 0.00 53 1021.0
20260906055358 70 127 0.0 0.9 0.00 0.00 0.00 52 1021.0
20260906054858 71 89 0.0 0.9 0.00 0.00 0.00 51 1020.9
20260906054403 71 283 0.0 0.9 0.00 0.00 0.00 51 1020.7
20260906054357 71 278 0.0 0.9 0.00 0.00 0.00 51 1020.7
20260906053357 71 301 0.0 0.9 0.00 0.00 0.00 52 1020.8
20260906052858 71 302 0.0 1.7 0.00 0.00 0.00 52 1020.9
20260906052358 71 302 0.0 1.7 0.00 0.00 0.00 51 1020.9
20260906051857 72 288 0.0 0.9 0.00 0.00 0.00 50 1020.9
20260906051358 73 217 0.0 0.9 0.00 0.00 0.00 49 1020.9
20260906050854 74 285 0.0 1.7 0.00 0.00 0.00 47 1020.9
20260906050356 74 266 0.9 3.5 0.00 0.00 0.00 44 1020.8
20260906045851 74 284 0.9 3.5 0.00 0.00 0.00 44 1020.9
20260906045349 74 257 1.7 8.7 0.00 0.00 0.00 42 1021.2
20260906044848 76 221 1.7 8.7 0.00 0.00 0.00 41 1021.3
20260906044348 76 295 0.0 4.3 0.00 0.00 0.00 39 1021.3
20260906043850 76 313 0.0 0.9 0.00 0.00 0.00 38 1021.3
20260906043344 76 307 0.0 1.7 0.00 0.00 0.00 37 1021.4
20260906042845 76 318 0.9 2.6 0.00 0.00 0.00 36 1021.5
20260906042346 75 291 0.9 3.5 0.00 0.00 0.00 36 1021.5
20260906041841 75 302 0.9 3.5 0.00 0.00 0.00 37 1021.3
20260906041339 75 204 0.0 6.1 0.00 0.00 0.00 37 1020.9
20260906040840 75 146 0.0 6.1 0.00 0.00 0.00 37 1020.8
20260906040338 75 146 1.7 7.0 0.00 0.00 0.00 37 1020.8
20260906035837 74 143 1.7 7.0 0.00 0.00 0.00 38 1020.8
20260906035338 74 150 0.0 1.7 0.00 0.00 0.00 40 1020.8
20260906034835 74 345 0.0 0.9 0.00 0.00 0.00 38 1020.2
20260906034336 73 346 0.0 0.9 0.00 0.00 0.00 38 1020.0
20260906033834 74 345 0.0 0.0 0.00 0.00 0.00 39 1020.0
20260906033339 74 345 0.0 0.0 0.00 0.00 0.00 37 1019.7
20260906033335 74 345 0.0 0.0 0.00 0.00 0.00 37 1019.9
20260906032335 74 345 0.0 0.0 0.00 0.00 0.00 36 1019.7
20260906031839 75 345 0.0 0.9 0.00 0.00 0.00 36 1019.7
20260906031835 75 345 0.0 0.0 0.00 0.00 0.00 38 1019.7
20260906030838 75 345 0.0 0.0 0.00 0.00 0.00 36 1019.5
20260906030833 75 345 0.0 0.9 0.00 0.00 0.00 36 1019.6
20260906025830 75 345 0.0 0.9 0.00 0.00 0.00 37 1019.4
20260906025328 75 345 0.0 0.9 0.00 0.00 0.00 37 1019.3
20260906024829 75 344 0.0 0.0 0.00 0.00 0.00 37 1019.1
20260906024329 75 344 0.0 0.0 0.00 0.00 0.00 38 1019.0
20260906023827 75 344 0.0 0.0 0.00 0.00 0.00 36 1019.0
20260906023327 76 344 0.0 0.9 0.00 0.00 0.00 37 1019.0
20260906022826 76 344 0.0 0.9 0.00 0.00 0.00 36 1019.0
20260906022327 76 344 0.0 0.0 0.00 0.00 0.00 37 1019.0
20260906021827 77 344 0.0 0.0 0.00 0.00 0.00 35 1019.0
20260906021325 77 344 0.0 0.0 0.00 0.00 0.00 34 1019.0
20260906020825 78 344 0.0 0.0 0.00 0.00 0.00 33 1019.0
20260906020324 78 344 0.0 0.0 0.00 0.00 0.00 32 1018.9
20260906015823 79 344 0.0 0.0 0.00 0.00 0.00 33 1018.9
20260906015328 80 344 0.0 0.0 0.00 0.00 0.00 31 1018.8
20260906015324 79 344 0.0 0.0 0.00 0.00 0.00 31 1018.9
20260906014328 80 345 0.0 0.9 0.00 0.00 0.00 30 1018.6
20260906014324 80 344 0.0 0.9 0.00 0.00 0.00 30 1018.7
20260906013329 81 349 0.0 0.0 0.00 0.00 0.00 30 1018.3
20260906013324 80 345 0.0 0.9 0.00 0.00 0.00 30 1018.6
20260906012926 81 348 0.0 0.0 0.00 0.00 0.00 31 1018.3
20260906011820 82 349 0.0 0.0 0.00 0.00 0.00 29 1018.2
20260906011320 82 349 0.0 0.0 0.00 0.00 0.00 28 1018.2
20260906010821 83 349 0.0 0.0 0.00 0.00 0.00 28 1018.2
20260906010318 84 349 0.0 0.0 0.00 0.00 0.00 28 1018.2
20260906005819 84 349 0.0 0.0 0.00 0.00 0.00 26 1018.2
20260906005318 85 349 0.0 0.0 0.00 0.00 0.00 25 1018.3
20260906004818 85 349 0.0 0.0 0.00 0.00 0.00 25 1018.3
20260906004318 86 349 0.0 0.0 0.00 0.00 0.00 24 1018.3
20260906003819 86 349 0.0 0.0 0.00 0.00 0.00 24 1018.3
20260906003325 87 310 0.0 0.0 0.00 0.00 0.00 23 1018.3
20260906003319 87 349 0.0 0.0 0.00 0.00 0.00 23 1018.3
20260906002938 87 310 0.0 0.0 0.00 0.00 0.00 23 1018.2
20260906001818 88 310 0.0 0.9 0.00 0.00 0.00 22 1018.2
20260906001319 89 311 0.0 1.7 0.00 0.00 0.00 22 1018.2
20260906000818 89 27 0.9 2.6 0.00 0.00 0.00 21 1018.2
20260906000318 90 340 0.9 2.6 0.00 0.00 0.00 21 1018.2
20260905235818 90 23 0.9 3.5 0.00 0.00 0.00 21 1018.1
20260905235316 90 354 1.7 3.5 0.00 0.00 0.00 21 1018.1
20260905234825 90 354 1.7 4.3 0.00 0.00 0.00 21 1018.1
20260905234819 90 8 1.7 4.3 0.00 0.00 0.00 20 1018.1
20260905234436 91 351 0.9 4.3 0.00 0.00 0.00 20 1018.0
20260905233324 91 6 0.0 2.6 0.00 0.00 0.00 20 1018.1
20260905233317 91 15 0.9 4.3 0.00 0.00 0.00 21 1018.1
20260905232317 91 39 0.9 3.5 0.00 0.00 0.00 20 1018.1
20260905231819 91 349 0.9 3.5 0.00 0.00 0.00 20 1018.1
20260905231316 91 335 1.7 4.3 0.00 0.00 0.00 20 1018.0
20260905230825 91 330 0.9 3.5 0.00 0.00 0.00 21 1018.1
20260905230819 91 4 1.7 4.3 0.00 0.00 0.00 20 1018.1
20260905225825 91 342 0.9 5.2 0.00 0.00 0.00 21 1018.0
20260905225819 91 7 1.7 3.5 0.00 0.00 0.00 21 1018.1
20260905224817 91 318 0.9 6.1 0.00 0.00 0.00 20 1018.1
20260905224316 91 2 1.7 6.1 0.00 0.00 0.00 20 1018.1
20260905223824 91 297 1.7 4.3 0.00 0.00 0.00 21 1018.1
20260905223818 91 356 1.7 4.3 0.00 0.00 0.00 21 1018.1